sat.trackr.live / text

‹ back to catalog

COSMOS 2533

NORAD 43867 · 2018-107A

PAYLOAD ACTIVE UNKNOWN

§ Identity

Operator
Country
CIS
Launch date
2018-12-21
Launch site
TYMSC
Launch vehicle
Mass (kg)
RCS (m²)

Purposes: comms

External: N2YO · Heavens-Above · Gunter

§ Orbital elements

Epoch: 2026-09-20T03:34:03.697824Z

Period
1,436.04 min
Inclination
0.0142°
Eccentricity
0.0000375
Mean motion
1.00276022 rev/d
Perigee alt
35,783.8 km
Apogee alt
35,787.0 km
Semi-major
42,163.5 km
B*
0.0000e+0
RAAN
131.8581°
Arg perigee
83.1905°
Mean anomaly
267.5137°
Rev number
2,840

§ Raw data

COSMOS 25331 43867U 18107A   26263.14865391 -.00000044  00000+0  00000+0 0  99982 43867   0.0142 131.8581 0000375  83.1905 267.5137  1.00276022 28400

JSON: /api/v1/satellites/43867 · /tle

For live sub-satellite position, see the globe view (requires WebGL).

§ Visibility from observer

Set your observer location to see the next 7 days of passes ≥ 10°. The values pass through the URL so the page stays shareable.

No JS? Fill the form by hand. The geolocation button needs JavaScript.